TimeCDT,TemperatureF,Dew PointF,Humidity,Sea Level PressureIn,VisibilityMPH,Wind Direction,Wind SpeedMPH,Gust SpeedMPH,PrecipitationIn,Events,Conditions,WindDirDegrees,DateUTC
12:14 AM,50.0,46.4,87,30.05,10.0,Calm,Calm,-,N/A,,Scattered Clouds,0,2013-06-07 05:14:00
12:33 AM,50.0,46.4,87,30.05,10.0,Calm,Calm,-,N/A,,Clear,0,2013-06-07 05:33:00
12:54 AM,50.0,46.4,87,30.05,10.0,Calm,Calm,-,N/A,,Clear,0,2013-06-07 05:54:00
1:14 AM,50.0,46.4,87,30.05,10.0,Calm,Calm,-,N/A,,Clear,0,2013-06-07 06:14:00
1:33 AM,50.0,46.4,87,30.04,10.0,NNW,3.5,-,N/A,,Clear,340,2013-06-07 06:33:00
1:54 AM,48.2,44.6,87,30.04,10.0,Calm,Calm,-,N/A,,Scattered Clouds,0,2013-06-07 06:54:00
2:14 AM,48.2,44.6,87,30.04,10.0,Calm,Calm,-,N/A,,Scattered Clouds,0,2013-06-07 07:14:00
2:33 AM,46.4,44.6,93,30.04,10.0,Calm,Calm,-,N/A,,Scattered Clouds,0,2013-06-07 07:33:00
2:54 AM,48.2,44.6,87,30.04,10.0,WNW,3.5,-,N/A,,Scattered Clouds,290,2013-06-07 07:54:00
3:14 AM,48.2,44.6,87,30.04,7.0,Calm,Calm,-,N/A,,Scattered Clouds,0,2013-06-07 08:14:00
3:33 AM,50.0,46.4,87,30.04,7.0,Calm,Calm,-,N/A,,Mostly Cloudy,0,2013-06-07 08:33:00
3:54 AM,48.2,44.6,87,30.04,10.0,Calm,Calm,-,N/A,,Scattered Clouds,0,2013-06-07 08:54:00
4:13 AM,46.4,44.6,93,30.04,7.0,Calm,Calm,-,N/A,,Clear,0,2013-06-07 09:13:00
4:34 AM,46.4,44.6,93,30.04,7.0,Calm,Calm,-,N/A,,Clear,0,2013-06-07 09:34:00
4:54 AM,46.4,44.6,93,30.04,7.0,Calm,Calm,-,N/A,,Clear,0,2013-06-07 09:54:00
5:13 AM,46.4,44.6,93,30.04,5.0,Calm,Calm,-,N/A,,Clear,0,2013-06-07 10:13:00
5:34 AM,46.4,44.6,93,30.04,7.0,NNW,3.5,-,N/A,,Clear,330,2013-06-07 10:34:00
5:54 AM,46.4,44.6,93,30.04,5.0,Calm,Calm,-,N/A,,Clear,0,2013-06-07 10:54:00
6:13 AM,46.4,44.6,93,30.05,5.0,Calm,Calm,-,N/A,,Clear,0,2013-06-07 11:13:00
6:34 AM,46.4,44.6,93,30.05,5.0,Calm,Calm,-,N/A,,Clear,0,2013-06-07 11:34:00
6:53 AM,48.2,44.6,87,30.05,5.0,Calm,Calm,-,N/A,,Clear,0,2013-06-07 11:53:00
7:14 AM,50.0,46.4,87,30.06,7.0,Calm,Calm,-,N/A,,Clear,0,2013-06-07 12:14:00
7:34 AM,51.8,48.2,88,30.06,7.0,NE,3.5,-,N/A,,Clear,40,2013-06-07 12:34:00
7:53 AM,53.6,50.0,88,30.06,7.0,NE,4.6,-,N/A,,Clear,40,2013-06-07 12:53:00
8:14 AM,53.6,50.0,88,30.06,10.0,NE,3.5,-,N/A,,Clear,40,2013-06-07 13:14:00
8:34 AM,55.4,50.0,82,30.06,10.0,NE,3.5,-,N/A,,Clear,50,2013-06-07 13:34:00
8:53 AM,57.2,50.0,77,30.07,10.0,Calm,Calm,-,N/A,,Clear,0,2013-06-07 13:53:00
9:14 AM,59.0,50.0,72,30.06,10.0,Calm,Calm,-,N/A,,Clear,0,2013-06-07 14:14:00
9:33 AM,59.0,50.0,72,30.06,10.0,Calm,Calm,-,N/A,,Scattered Clouds,0,2013-06-07 14:33:00
9:54 AM,59.0,50.0,72,30.05,10.0,NW,3.5,-,N/A,,Mostly Cloudy,320,2013-06-07 14:54:00
10:14 AM,59.0,50.0,72,30.05,10.0,Calm,Calm,-,N/A,,Scattered Clouds,0,2013-06-07 15:14:00
10:33 AM,60.8,50.0,68,30.05,10.0,Calm,Calm,-,N/A,,Scattered Clouds,0,2013-06-07 15:33:00
10:54 AM,60.8,48.2,63,30.04,10.0,Calm,Calm,-,N/A,,Mostly Cloudy,0,2013-06-07 15:54:00
11:14 AM,60.8,50.0,68,30.04,10.0,Calm,Calm,-,N/A,,Overcast,0,2013-06-07 16:14:00
11:33 AM,60.8,46.4,59,30.03,10.0,Calm,Calm,-,N/A,,Overcast,0,2013-06-07 16:33:00
11:54 AM,62.6,50.0,63,30.03,10.0,East,4.6,-,N/A,,Mostly Cloudy,90,2013-06-07 16:54:00
12:14 PM,62.6,48.2,59,30.03,10.0,Calm,Calm,-,N/A,,Overcast,0,2013-06-07 17:14:00
12:33 PM,64.4,48.2,56,30.02,10.0,Calm,Calm,-,N/A,,Overcast,0,2013-06-07 17:33:00
12:54 PM,64.4,46.4,52,30.02,10.0,West,3.5,-,N/A,,Mostly Cloudy,270,2013-06-07 17:54:00
1:13 PM,64.4,46.4,52,30.02,10.0,Calm,Calm,-,N/A,,Overcast,0,2013-06-07 18:13:00
1:33 PM,64.4,46.4,52,30.01,10.0,Calm,Calm,-,N/A,,Overcast,0,2013-06-07 18:33:00
1:54 PM,64.4,46.4,52,30.00,10.0,Calm,Calm,-,N/A,,Mostly Cloudy,0,2013-06-07 18:54:00
2:13 PM,64.4,46.4,52,30.00,10.0,Calm,Calm,-,N/A,,Overcast,0,2013-06-07 19:13:00
2:33 PM,64.4,46.4,52,29.99,10.0,East,3.5,-,N/A,,Overcast,100,2013-06-07 19:33:00
2:54 PM,64.4,46.4,52,29.98,10.0,Calm,Calm,-,N/A,,Mostly Cloudy,0,2013-06-07 19:54:00
3:14 PM,68.0,46.4,46,29.98,10.0,SSE,3.5,-,N/A,,Scattered Clouds,150,2013-06-07 20:14:00
3:33 PM,68.0,46.4,46,29.98,10.0,East,3.5,-,N/A,,Clear,80,2013-06-07 20:33:00
3:54 PM,69.8,46.4,43,29.97,10.0,Calm,Calm,-,N/A,,Scattered Clouds,0,2013-06-07 20:54:00
4:14 PM,68.0,44.6,43,29.96,10.0,Calm,Calm,-,N/A,,Mostly Cloudy,0,2013-06-07 21:14:00
4:33 PM,69.8,44.6,40,29.96,10.0,Calm,Calm,-,N/A,,Scattered Clouds,0,2013-06-07 21:33:00
4:54 PM,69.8,46.4,43,29.95,10.0,South,5.8,-,N/A,,Scattered Clouds,180,2013-06-07 21:54:00
5:14 PM,69.8,46.4,43,29.94,10.0,ESE,4.6,-,N/A,,Scattered Clouds,110,2013-06-07 22:14:00
5:33 PM,69.8,44.6,40,29.93,10.0,East,3.5,-,N/A,,Scattered Clouds,100,2013-06-07 22:33:00
5:54 PM,68.0,44.6,43,29.92,10.0,SSE,3.5,-,N/A,,Scattered Clouds,150,2013-06-07 22:54:00
6:14 PM,69.8,44.6,40,29.92,10.0,Calm,Calm,-,N/A,,Scattered Clouds,0,2013-06-07 23:14:00
6:33 PM,69.8,44.6,40,29.92,10.0,South,6.9,-,N/A,,Mostly Cloudy,180,2013-06-07 23:33:00
6:54 PM,69.8,44.6,40,29.91,10.0,South,5.8,-,N/A,,Scattered Clouds,170,2013-06-07 23:54:00
7:13 PM,68.0,44.6,43,29.91,10.0,SSE,5.8,-,N/A,,Clear,160,2013-06-08 00:13:00
7:34 PM,68.0,44.6,43,29.91,10.0,South,5.8,-,N/A,,Clear,190,2013-06-08 00:34:00
7:53 PM,68.0,44.6,43,29.91,10.0,South,6.9,-,N/A,,Clear,180,2013-06-08 00:53:00
8:14 PM,68.0,46.4,46,29.91,10.0,SSE,8.1,-,N/A,,Clear,160,2013-06-08 01:14:00
8:34 PM,68.0,46.4,46,29.91,10.0,SE,5.8,-,N/A,,Clear,140,2013-06-08 01:34:00
8:53 PM,64.4,46.4,52,29.91,10.0,SE,5.8,-,N/A,,Clear,140,2013-06-08 01:53:00
9:14 PM,64.4,46.4,52,29.90,10.0,SE,4.6,-,N/A,,Clear,130,2013-06-08 02:14:00
9:34 PM,62.6,48.2,59,29.90,10.0,SE,5.8,-,N/A,,Clear,130,2013-06-08 02:34:00
9:53 PM,62.6,48.2,59,29.90,10.0,SE,5.8,-,N/A,,Clear,130,2013-06-08 02:53:00
10:14 PM,60.8,48.2,63,29.90,10.0,ESE,5.8,-,N/A,,Clear,120,2013-06-08 03:14:00
10:34 PM,60.8,48.2,63,29.90,10.0,ESE,6.9,-,N/A,,Clear,120,2013-06-08 03:34:00
10:53 PM,60.8,48.2,63,29.90,10.0,SE,8.1,-,N/A,,Clear,130,2013-06-08 03:53:00
11:14 PM,59.0,48.2,67,29.90,10.0,SE,6.9,-,N/A,,Clear,140,2013-06-08 04:14:00
11:34 PM,59.0,48.2,67,29.90,10.0,SE,6.9,-,N/A,,Clear,140,2013-06-08 04:34:00
11:53 PM,59.0,48.2,67,29.90,10.0,SSE,6.9,-,N/A,,Clear,160,2013-06-08 04:53:00